Terminal Aerodrome Forecast
Issued by NWS

Home | Current Version | Previous Version | Text Only | Print | Product List | Glossary Off
Versions: 1 2 3 4 5 6 7 8 9 10 11 12 13 14 15 16 17

000
FTUS43 KICT 181700
TAFSLN
TAF
KSLN 181732Z 1818/1918 13012G20KT P6SM SCT035
     FM190600 15009KT 5SM BR FEW012 FEW035
     FM191500 20010G17KT P6SM SKC=

USA.gov is the U.S. government's official web portal to all federal, state and local government web resources and services.